Location: Tamazert
(32.6352°N, 5.2072°W)
Time: 07:30:14
(UTC+00:00)

Tiros 1 despin weight - Pass Details

Date: 09 October 2022
Orbit: 590 x 637 km, 48.2° (Epoch: 28 November)

Event Time Altitude Azimuth Distance (km) Brightness Sun altitude
Rises 11:36:05 0° 192° (SSW) 2,799 ? 50.3°
Reaches altitude 10° 11:38:55 10° 174° (S) 1,904 ? 50.4°
Maximum altitude 11:41:55 18° 130° (SE) 1,451 ? 50.5°
Drops below altitude 10° 11:44:56 10° 86° (E) 1,919 ? 50.6°
Sets 11:47:48 0° 68° (ENE) 2,831 ? 50.7°
